Hourly Data Report for November 30, 2016

All times are specified in Local Standard Time (LST). Add 1 hour to adjust for Daylight Saving Time where and when it is observed.

KITCHENER/WATERLOO
ONTARIO

43°27'39.000" N
80°22'43.000" W
321.60 m
6144239
71368
YKF

Download Data

Hourly Data (November 2016)
Hourly Data Report for November 30, 2016
Temp Definition
°C
Dew Point Temp Definition
°C
Rel Hum Definition
%
Wind Dir Definition
10's deg

Wind Spd Definition
km/h
Visibility Definition
km
Stn Press Definition
kPa
Hmdx Definition


Wind Chill Definition


Weather Definition


TIME
00:00 Legend Double Dagger 5.5 5.1 97 13 9 4.8 97.04     Fog
01:00 Legend Double Dagger 5.7 5.3 97 16 13 4.8 96.98     Fog
02:00 Legend Double Dagger 6.0 5.6 97 12 5 3.2 97.00     Fog
03:00 Legend Double Dagger 6.5 6.0 97 10 11 8.1 96.88     Fog
04:00 Legend Double Dagger 8.0 6.3 89 13 13 16.1 96.78     LegendNANA
05:00 Legend Double Dagger 7.4 5.7 89 14 13 16.1 96.76     LegendNANA
06:00 Legend Double Dagger 7.1 5.7 91 12 5 16.1 96.73     LegendNANA
07:00 Legend Double Dagger 7.2 6.0 92 12 9 16.1 96.71     Rain
08:00 Legend Double Dagger 6.8 6.1 95 9 5 9.7 96.67     Rain,Fog
09:00 Legend Double Dagger 7.3 6.4 94 8 9 11.3 96.64     LegendNANA
10:00 Legend Double Dagger 8.2 7.1 93 9 9 12.9 96.57     LegendNANA
11:00 Legend Double Dagger 9.8 7.9 88 13 11 16.1 96.51     LegendNANA
12:00 Legend Double Dagger 10.9 8.7 86 16 17 16.1 96.42     LegendNANA
13:00 Legend Double Dagger 11.3 8.9 85 15 15 16.1 96.32     LegendNANA
14:00 Legend Double Dagger 10.9 9.2 89 15 17 16.1 96.21     LegendNANA
15:00 Legend Double Dagger 10.7 9.7 94 16 9 16.1 96.19     LegendNANA
16:00 Legend Double Dagger 10.8 10.2 96 17 15 8.1 96.14     Fog
17:00 Legend Double Dagger 10.8 10.4 97 18 15 3.2 96.12     Fog
18:00 Legend Double Dagger 10.9 10.1 95 20 9 8.1 96.07     Fog
19:00 Legend Double Dagger 10.7 9.8 94 24 15 6.4 96.05     Fog
20:00 Legend Double Dagger 9.9 8.7 92 22 11 9.7 96.04     Rain,Fog
21:00 Legend Double Dagger 9.6 8.4 92 24 21 8.1 95.98     Rain,Fog
22:00 Legend Double Dagger 7.7 6.3 91 27 21 16.1 95.98     Rain
23:00 Legend Double Dagger 7.4 6.2 92 26 15 16.1 96.01     LegendNANA

Notes on Data Quality.

Legend

  • E = Estimated
  • M = Missing
  • NA = Not Available
  • ‡ = Partner data that is not subject to review by the National Climate Archives
Date modified: